| time (UTC) | temp F | wind direction | speed MPH | gust MPH | rain 1hr in | rain 24hr in | rain mn in | humidity % | barometer mb |
| 20260502211531 | 42 | 344 | 10.0 | 18.0 | 0.00 | 0.05 | 0.00 | 69 | 1010.9 |
| 20260502210031 | 42 | 327 | 11.0 | 18.0 | 0.00 | 0.08 | 0.00 | 70 | 1010.8 |
| 20260502204531 | 43 | 1 | 12.0 | 19.0 | 0.00 | 0.08 | 0.00 | 69 | 1010.7 |
| 20260502203029 | 43 | 24 | 7.0 | 13.0 | 0.00 | 0.08 | 0.00 | 66 | 1010.7 |
| 20260502201529 | 43 | 330 | 11.0 | 17.0 | 0.00 | 0.08 | 0.00 | 66 | 1010.7 |
| 20260502200029 | 43 | 315 | 9.0 | 16.0 | 0.00 | 0.11 | 0.00 | 66 | 1010.8 |
| 20260502194530 | 43 | 334 | 7.0 | 14.0 | 0.00 | 0.11 | 0.00 | 66 | 1010.9 |
| 20260502193027 | 43 | 339 | 11.0 | 15.0 | 0.00 | 0.11 | 0.00 | 64 | 1011.0 |
| 20260502191529 | 44 | 339 | 10.0 | 17.0 | 0.00 | 0.11 | 0.00 | 64 | 1011.0 |
| 20260502190026 | 45 | 324 | 11.0 | 19.0 | 0.00 | 0.12 | 0.00 | 64 | 1011.0 |
| 20260502184537 | 44 | 323 | 7.0 | 14.0 | 0.00 | 0.12 | 0.00 | 64 | 1010.9 |
| 20260502183025 | 44 | 306 | 10.0 | 16.0 | 0.00 | 0.12 | 0.00 | 64 | 1010.9 |
| 20260502181529 | 44 | 329 | 14.0 | 20.0 | 0.00 | 0.12 | 0.00 | 64 | 1011.0 |
| 20260502163024 | 44 | 273 | 7.0 | 19.0 | 0.00 | 0.12 | 0.00 | 63 | 1011.0 |
| 20260502161517 | 45 | 292 | 11.0 | 17.0 | 0.00 | 0.12 | 0.00 | 67 | 1011.0 |
| 20260502151514 | 44 | 355 | 10.0 | 18.0 | 0.00 | 0.12 | 0.00 | 67 | 1011.2 |
| 20260502123101 | 36 | 310 | 4.0 | 10.0 | 0.00 | 0.12 | 0.00 | 57 | 1012.0 |
| 20260502121551 | 36 | 308 | 5.0 | 11.0 | 0.00 | 0.12 | 0.00 | 55 | 1012.1 |
| 20260502114549 | 34 | 294 | 6.0 | 10.0 | 0.00 | 0.12 | 0.00 | 55 | 1012.0 |
| 20260502113049 | 33 | 288 | 3.0 | 9.0 | 0.00 | 0.12 | 0.00 | 56 | 1011.9 |
| 20260502111546 | 33 | 294 | 2.0 | 8.0 | 0.00 | 0.12 | 0.00 | 56 | 1011.9 |
| 20260502110041 | 33 | 298 | 2.0 | 8.0 | 0.00 | 0.12 | 0.00 | 57 | 1011.7 |
| 20260502104541 | 32 | 298 | 5.0 | 8.0 | 0.00 | 0.12 | 0.00 | 57 | 1011.6 |
| 20260502103037 | 32 | 302 | 4.0 | 9.0 | 0.00 | 0.12 | 0.00 | 57 | 1011.5 |
| 20260502101550 | 33 | 291 | 5.0 | 9.0 | 0.00 | 0.12 | 0.00 | 57 | 1011.4 |
| 20260502091528 | 34 | 283 | 3.0 | 8.0 | 0.00 | 0.12 | 0.00 | 57 | 1011.1 |
| 20260502071507 | 37 | 326 | 8.0 | 13.0 | 0.00 | 0.12 | 0.00 | 56 | 1010.2 |
| 20260502070005 | 37 | 302 | 4.0 | 13.0 | 0.00 | 0.12 | 0.00 | 55 | 1010.2 |
| 20260502064502 | 37 | 300 | 8.0 | 15.0 | 0.00 | 0.12 | 0.00 | 54 | 1010.3 |
| 20260502063059 | 38 | 281 | 5.0 | 10.0 | 0.00 | 0.12 | 0.00 | 53 | 1010.3 |
| 20260502061558 | 38 | 290 | 4.0 | 10.0 | 0.00 | 0.12 | 0.00 | 52 | 1010.3 |
| 20260502060058 | 38 | 292 | 4.0 | 9.0 | 0.00 | 0.12 | 0.00 | 51 | 1010.3 |
| 20260502054558 | 39 | 295 | 5.0 | 11.0 | 0.00 | 0.12 | 0.00 | 50 | 1010.3 |
| 20260502053110 | 39 | 305 | 7.0 | 10.0 | 0.00 | 0.12 | 0.00 | 50 | 1010.3 |
| 20260502051552 | 39 | 311 | 4.0 | 9.0 | 0.00 | 0.12 | 0.00 | 49 | 1010.4 |
| 20260502050050 | 39 | 300 | 9.0 | 14.0 | 0.00 | 0.12 | 0.00 | 49 | 1010.5 |
| 20260502044547 | 39 | 315 | 8.0 | 12.0 | 0.00 | 0.12 | 0.00 | 49 | 1010.1 |
| 20260502043044 | 39 | 294 | 6.0 | 11.0 | 0.00 | 0.12 | 0.00 | 49 | 1010.3 |
| 20260502041543 | 40 | 294 | 5.0 | 10.0 | 0.00 | 0.12 | 0.00 | 49 | 1010.1 |
| 20260502040043 | 40 | 299 | 4.0 | 8.0 | 0.00 | 0.12 | 0.12 | 49 | 1010.1 |
| 20260502034538 | 40 | 296 | 5.0 | 9.0 | 0.00 | 0.12 | 0.12 | 49 | 1010.1 |
| 20260502033037 | 40 | 288 | 6.0 | 10.0 | 0.00 | 0.12 | 0.12 | 49 | 1010.1 |
| 20260502031539 | 40 | 292 | 3.0 | 9.0 | 0.00 | 0.12 | 0.12 | 49 | 1010.1 |
| 20260502030051 | 40 | 295 | 5.0 | 9.0 | 0.00 | 0.12 | 0.12 | 49 | 1010.2 |
| 20260502024542 | 40 | 280 | 3.0 | 6.0 | 0.00 | 0.12 | 0.12 | 49 | 1010.2 |
| 20260502023047 | 40 | 286 | 2.0 | 5.0 | 0.00 | 0.12 | 0.12 | 49 | 1010.2 |
| 20260502021540 | 40 | 330 | 2.0 | 5.0 | 0.00 | 0.12 | 0.12 | 49 | 1010.2 |
| 20260502020034 | 40 | 339 | 2.0 | 5.0 | 0.00 | 0.12 | 0.12 | 49 | 1010.3 |
| 20260502014538 | 40 | 339 | 3.0 | 5.0 | 0.00 | 0.12 | 0.12 | 50 | 1010.1 |
| 20260502013033 | 40 | 339 | 2.0 | 4.0 | 0.00 | 0.12 | 0.12 | 49 | 1009.8 |
| 20260502011531 | 40 | 339 | 2.0 | 4.0 | 0.00 | 0.12 | 0.12 | 50 | 1009.7 |
| 20260502010032 | 40 | 339 | 1.0 | 4.0 | 0.00 | 0.12 | 0.12 | 50 | 1009.4 |
| 20260502004529 | 41 | 339 | 1.0 | 3.0 | 0.01 | 0.12 | 0.12 | 50 | 1009.2 |
| 20260502003029 | 41 | 339 | 0.0 | 4.0 | 0.01 | 0.12 | 0.12 | 50 | 1009.1 |
| 20260502001529 | 41 | 339 | 0.0 | 2.0 | 0.01 | 0.12 | 0.12 | 50 | 1008.9 |
| 20260502000028 | 41 | 339 | 3.0 | 5.0 | 0.02 | 0.12 | 0.12 | 50 | 1008.9 |
| 20260501234527 | 41 | 339 | 0.0 | 5.0 | 0.01 | 0.11 | 0.11 | 50 | 1008.7 |
| 20260501233027 | 42 | 339 | 3.0 | 6.0 | 0.01 | 0.11 | 0.11 | 50 | 1008.6 |
| 20260501231526 | 42 | 334 | 4.0 | 6.0 | 0.02 | 0.11 | 0.11 | 49 | 1008.4 |
| 20260501230026 | 42 | 334 | 2.0 | 6.0 | 0.01 | 0.10 | 0.10 | 49 | 1008.4 |
| 20260501224527 | 43 | 330 | 0.0 | 5.0 | 0.02 | 0.10 | 0.10 | 49 | 1008.3 |
| 20260501223033 | 43 | 330 | 3.0 | 6.0 | 0.02 | 0.10 | 0.10 | 50 | 1008.4 |
| 20260501221525 | 43 | 327 | 2.0 | 6.0 | 0.01 | 0.09 | 0.09 | 50 | 1008.3 |
| 20260501220024 | 43 | 327 | 1.0 | 5.0 | 0.02 | 0.09 | 0.09 | 50 | 1008.4 |
| 20260501214523 | 43 | 317 | 1.0 | 4.0 | 0.02 | 0.08 | 0.08 | 50 | 1008.3 |
| 20260501213022 | 43 | 315 | 2.0 | 4.0 | 0.03 | 0.08 | 0.08 | 51 | 1008.3 |